• In Moldova, Republic
  • List of Countries
  • For 7 days
  • Water Temperature
  • Satellite Maps
  • Weather Map
  • Weather Widgets
  • user-avatar
    Login

    Hourly Weather Adelaide

    Today, 28 June, Wednesday

    Time Temperature Precipitation Wind Pressure Humidity
    00:00 +9°C° 0 mm 2 mps 762 mmHg 87%
    01:00 +9°C° 0 mm 2 mps 762 mmHg 88%
    02:00 +9°C° 0 mm 2 mps 762 mmHg 88%
    03:00 +9°C° 0 mm 2 mps 762 mmHg 90%
    04:00 +9°C° 0 mm 2 mps 762 mmHg 90%
    05:00 +8°C° 0 mm 2 mps 762 mmHg 91%
    06:00 +8°C° 0 mm 2 mps 762 mmHg 91%
    07:00 +10°C° 0 mm 2 mps 762 mmHg 85%
    08:00 +12°C° 0 mm 2 mps 762 mmHg 80%
    09:00 +14°C° 0 mm 2 mps 763 mmHg 73%
    10:00 +15°C° 0.3 mm 2 mps 763 mmHg 69%
    11:00 +16°C° 0.3 mm 2 mps 763 mmHg 64%
    12:00 +17°C° 0.3 mm 2 mps 762 mmHg 60%
    13:00 +16°C° 0.8 mm 2 mps 762 mmHg 65%
    14:00 +15°C° 0.8 mm 2 mps 762 mmHg 70%
    15:00 +15°C° 0.8 mm 2 mps 762 mmHg 75%
    16:00 +14°C° 0.8 mm 2 mps 762 mmHg 81%
    17:00 +13°C° 0.8 mm 2 mps 762 mmHg 86%
    18:00 +12°C° 0.8 mm 2 mps 763 mmHg 92%
    19:00 +10°C° 0.3 mm 2 mps 763 mmHg 92%
    20:00 +10°C° 0.3 mm 2 mps 763 mmHg 92%
    21:00 +10°C° 0.3 mm 2 mps 764 mmHg 92%
    22:00 +10°C° 0 mm 2 mps 764 mmHg 92%
    23:00 +10°C° 0 mm 3 mps 764 mmHg 91%

    Tomorrow, 29 June, Thursday

    Time Temperature Precipitation Wind Pressure Humidity
    00:00 +10°C° 0 mm 3 mps 764 mmHg 91%
    01:00 +9°C° 0 mm 3 mps 764 mmHg 91%
    02:00 +9°C° 0 mm 3 mps 765 mmHg 91%
    03:00 +8°C° 0 mm 4 mps 765 mmHg 91%
    04:00 +8°C° 0 mm 4 mps 765 mmHg 91%
    05:00 +8°C° 0 mm 4 mps 765 mmHg 90%
    06:00 +8°C° 0 mm 4 mps 766 mmHg 90%
    07:00 +10°C° 0 mm 4 mps 766 mmHg 86%
    08:00 +11°C° 0 mm 4 mps 767 mmHg 82%
    09:00 +11°C° 0 mm 4 mps 767 mmHg 79%
    10:00 +12°C° 0 mm 4 mps 767 mmHg 74%
    11:00 +12°C° 0 mm 4 mps 767 mmHg 68%
    12:00 +13°C° 0 mm 3 mps 767 mmHg 63%
    13:00 +13°C° 0 mm 4 mps 767 mmHg 64%
    14:00 +13°C° 0 mm 4 mps 767 mmHg 64%
    15:00 +13°C° 0 mm 4 mps 766 mmHg 65%
    16:00 +12°C° 0.1 mm 3 mps 767 mmHg 72%
    17:00 +11°C° 0.1 mm 3 mps 767 mmHg 79%
    18:00 +10°C° 0.1 mm 3 mps 767 mmHg 86%
    19:00 +10°C° 0.1 mm 3 mps 768 mmHg 88%
    20:00 +10°C° 0.1 mm 3 mps 768 mmHg 89%
    21:00 +10°C° 0.1 mm 3 mps 768 mmHg 90%
    22:00 +10°C° 0.1 mm 2 mps 768 mmHg 91%
    23:00 +9°C° 0.1 mm 2 mps 769 mmHg 92%

    Day after tomorrow, 30 June, Friday

    Time Temperature Precipitation Wind Pressure Humidity
    00:00 +9°C° 0.1 mm 2 mps 769 mmHg 93%
    01:00 +9°C° 0 mm 2 mps 769 mmHg 93%
    02:00 +9°C° 0 mm 2 mps 769 mmHg 92%
    03:00 +9°C° 0 mm 2 mps 769 mmHg 92%
    04:00 +8°C° 0 mm 2 mps 769 mmHg 91%
    05:00 +7°C° 0 mm 2 mps 769 mmHg 90%
    06:00 +7°C° 0 mm 3 mps 769 mmHg 90%
    07:00 +7°C° 0 mm 3 mps 770 mmHg 84%
    08:00 +8°C° 0 mm 3 mps 770 mmHg 79%
    09:00 +9°C° 0 mm 3 mps 770 mmHg 74%
    10:00 +10°C° 0 mm 3 mps 770 mmHg 67%
    11:00 +12°C° 0 mm 3 mps 769 mmHg 61%
    12:00 +14°C° 0 mm 2 mps 769 mmHg 55%
    13:00 +14°C° 0 mm 2 mps 768 mmHg 54%
    14:00 +14°C° 0 mm 2 mps 768 mmHg 53%
    15:00 +15°C° 0 mm 2 mps 767 mmHg 53%
    16:00 +13°C° 0 mm 2 mps 767 mmHg 60%
    17:00 +10°C° 0 mm 2 mps 767 mmHg 66%
    18:00 +9°C° 0 mm 2 mps 768 mmHg 73%
    19:00 +9°C° 0 mm 3 mps 768 mmHg 74%
    20:00 +8°C° 0 mm 3 mps 768 mmHg 75%
    21:00 +8°C° 0 mm 3 mps 768 mmHg 75%
    22:00 +8°C° 0 mm 3 mps 767 mmHg 76%
    23:00 +7°C° 0 mm 4 mps 767 mmHg 77%

    1 July, Saturday

    Time Temperature Precipitation Wind Pressure Humidity
    00:00 +7°C° 0 mm 4 mps 767 mmHg 78%
    01:00 +7°C° 0 mm 4 mps 767 mmHg 79%
    02:00 +7°C° 0 mm 4 mps 766 mmHg 81%
    03:00 +7°C° 0 mm 4 mps 766 mmHg 82%
    04:00 +7°C° 0 mm 4 mps 766 mmHg 83%
    05:00 +7°C° 0 mm 4 mps 766 mmHg 83%
    06:00 +7°C° 0 mm 4 mps 766 mmHg 83%
    07:00 +8°C° 0 mm 4 mps 766 mmHg 78%
    08:00 +10°C° 0 mm 4 mps 766 mmHg 74%
    09:00 +11°C° 0 mm 4 mps 766 mmHg 69%
    10:00 +12°C° 0 mm 4 mps 765 mmHg 64%
    11:00 +13°C° 0 mm 4 mps 765 mmHg 58%
    12:00 +15°C° 0 mm 4 mps 764 mmHg 53%
    13:00 +15°C° 0 mm 4 mps 763 mmHg 53%
    14:00 +15°C° 0 mm 4 mps 763 mmHg 53%
    15:00 +16°C° 0 mm 3 mps 762 mmHg 52%
    16:00 +14°C° 0 mm 3 mps 762 mmHg 58%
    17:00 +12°C° 0 mm 3 mps 762 mmHg 64%
    18:00 +11°C° 0 mm 3 mps 762 mmHg 70%
    19:00 +11°C° 0 mm 3 mps 762 mmHg 69%
    20:00 +10°C° 0 mm 4 mps 762 mmHg 67%
    21:00 +10°C° 0 mm 4 mps 762 mmHg 66%
    22:00 +10°C° 0 mm 4 mps 761 mmHg 66%
    23:00 +10°C° 0 mm 4 mps 761 mmHg 66%

    2 July, Sunday

    Time Temperature Precipitation Wind Pressure Humidity
    00:00 +9°C° 0 mm 5 mps 760 mmHg 66%
    01:00 +9°C° 0 mm 5 mps 760 mmHg 66%
    02:00 +8°C° 0 mm 5 mps 759 mmHg 66%
    03:00 +8°C° 0 mm 5 mps 759 mmHg 66%
    04:00 +8°C° 0 mm 5 mps 759 mmHg 64%
    05:00 +8°C° 0 mm 5 mps 758 mmHg 63%
    06:00 +8°C° 0 mm 5 mps 758 mmHg 62%
    07:00 +9°C° 0 mm 6 mps 758 mmHg 58%
    08:00 +10°C° 0 mm 6 mps 757 mmHg 54%
    09:00 +11°C° 0 mm 6 mps 757 mmHg 50%
    10:00 +12°C° 0 mm 7 mps 756 mmHg 47%
    11:00 +14°C° 0 mm 7 mps 755 mmHg 43%
    12:00 +16°C° 0 mm 7 mps 754 mmHg 40%
    13:00 +16°C° 0 mm 7 mps 753 mmHg 40%
    14:00 +16°C° 0 mm 7 mps 752 mmHg 40%
    15:00 +16°C° 0 mm 6 mps 751 mmHg 40%
    16:00 +15°C° 0.6 mm 6 mps 751 mmHg 53%
    17:00 +12°C° 0.6 mm 7 mps 750 mmHg 65%
    18:00 +11°C° 0.6 mm 7 mps 750 mmHg 78%
    19:00 +10°C° 0.7 mm 7 mps 751 mmHg 81%
    20:00 +10°C° 0.7 mm 7 mps 751 mmHg 83%
    21:00 +10°C° 0.7 mm 7 mps 751 mmHg 86%
    22:00 +9°C° 0.6 mm 7 mps 751 mmHg 85%
    23:00 +9°C° 0.6 mm 7 mps 751 mmHg 84%

    3 July, Monday

    Time Temperature Precipitation Wind Pressure Humidity
    00:00 +9°C° 0.6 mm 7 mps 751 mmHg 82%
    01:00 +8°C° 0.3 mm 7 mps 751 mmHg 81%
    02:00 +8°C° 0.3 mm 7 mps 751 mmHg 80%
    03:00 +8°C° 0.3 mm 7 mps 751 mmHg 79%
    04:00 +8°C° 0.3 mm 7 mps 751 mmHg 78%
    05:00 +8°C° 0.3 mm 7 mps 751 mmHg 78%
    06:00 +8°C° 0.3 mm 7 mps 751 mmHg 77%
    07:00 +9°C° 0.1 mm 8 mps 751 mmHg 72%
    08:00 +10°C° 0.1 mm 8 mps 751 mmHg 67%
    09:00 +11°C° 0.1 mm 9 mps 751 mmHg 62%
    10:00 +11°C° 0.1 mm 9 mps 751 mmHg 62%
    11:00 +12°C° 0.1 mm 10 mps 751 mmHg 62%
    12:00 +12°C° 0.1 mm 10 mps 750 mmHg 62%
    13:00 +12°C° 0.7 mm 10 mps 751 mmHg 68%
    14:00 +12°C° 0.7 mm 10 mps 751 mmHg 74%
    15:00 +11°C° 0.7 mm 9 mps 751 mmHg 80%
    16:00 +11°C° 0.4 mm 8 mps 752 mmHg 80%
    17:00 +11°C° 0.4 mm 6 mps 753 mmHg 81%
    18:00 +12°C° 0.4 mm 5 mps 754 mmHg 81%
    19:00 +12°C° 0.1 mm 5 mps 755 mmHg 83%
    20:00 +11°C° 0.1 mm 4 mps 755 mmHg 85%
    21:00 +11°C° 0.1 mm 4 mps 756 mmHg 86%
    22:00 +11°C° 0 mm 4 mps 756 mmHg 87%
    23:00 +11°C° 0 mm 4 mps 756 mmHg 89%
    Show more